This is the latest recevied weather packets stored in our database for station/object N8XHB. If no packets are shown the sender has not sent any weather packets the latest 10 day(s).
| Time | Temp. | Humidity | Pressure | Rain* | Wind** | Luminosity | Snow |
|---|---|---|---|---|---|---|---|
| 1777979054 | 9.44° C | 67% | 1004.7 hPa | 0 mm | - | 24 W/m² | - |
| 1777978751 | 9.44° C | 68% | 1004.3 hPa | 0 mm | - | 19 W/m² | - |
| 1777978448 | 9.44° C | 68% | 1004.2 hPa | 0 mm | - | 17 W/m² | - |
| 1777978144 | 9.44° C | 67% | 1004.1 hPa | 0 mm | - | 10 W/m² | - |
| 1777977841 | 9.44° C | 67% | 1003.9 hPa | 0 mm | - | 8 W/m² | - |
| 1777977537 | 9.44° C | 67% | 1004.1 hPa | 0 mm | - | 5 W/m² | - |
| 1777977235 | 9.44° C | 66% | 1004 hPa | 0 mm | - | 3 W/m² | - |
| 1777976932 | 9.44° C | 65% | 1003.9 hPa | 0 mm | - | 2 W/m² | - |
| 1777976629 | 9.44° C | 64% | 1003.6 hPa | 0 mm | - | 1 W/m² | - |
| 1777976325 | 9.44° C | 64% | 1003.6 hPa | 0 mm | - | 0 W/m² | - |
| 1777976019 | 9.44° C | 64% | 1003.5 hPa | 0 mm | - | 0 W/m² | - |
| 1777975716 | 10° C | 63% | 1003.7 hPa | 0 mm | - | 0 W/m² | - |
| 1777975413 | 10° C | 62% | 1003.5 hPa | 0 mm | - | 0 W/m² | - |
| 1777975108 | 10° C | 61% | 1003.5 hPa | 0 mm | - | 0 W/m² | - |
| 1777974806 | 10° C | 61% | 1003.1 hPa | 0 mm | - | 0 W/m² | - |
| 1777974502 | 10.56° C | 59% | 1003.2 hPa | 0 mm | - | 0 W/m² | - |
| 1777974199 | 10.56° C | 59% | 1002.8 hPa | 0 mm | - | 0 W/m² | - |
| 1777973894 | 10.56° C | 59% | 1002.7 hPa | 0 mm | - | 0 W/m² | - |
| 1777973592 | 10.56° C | 60% | 1002.7 hPa | 0 mm | - | 0 W/m² | - |
| 1777973288 | 10.56° C | 60% | 1002.5 hPa | 0 mm | - | 0 W/m² | - |
| 1777972987 | 10.56° C | 59% | 1002.6 hPa | 0 mm | - | 0 W/m² | - |
| 1777972684 | 10.56° C | 59% | 1002.6 hPa | 0 mm | - | 0 W/m² | - |
| 1777972382 | 10.56° C | 59% | 1002.6 hPa | 0 mm | - | 0 W/m² | - |
| 1777972080 | 10.56° C | 60% | 1002.6 hPa | 0 mm | - | 0 W/m² | - |
| 1777971778 | 10.56° C | 60% | 1002.2 hPa | 0 mm | - | 0 W/m² | - |
* Rain latest hour (hover to see other rain measurements)
** Current wind speed in m/s (hover to see current wind gust speed)